Time,TemperatureF,DewpointF,PressureIn,WindDirection,WindDirectionDegrees,WindSpeedMPH,WindSpeedGustMPH,Humidity,HourlyPrecipIn,Conditions,Clouds,dailyrainin,SoftwareType,DateUTC
2013-01-23 00:04:00,36.0,0.0,29.67,SW,225,0.0,0.0,0,0.00,,,0.00,Weather View 32 v70,2013-01-23 08:04:00,
2013-01-23 00:09:00,36.0,0.0,29.67,WNW,292,0.0,0.0,0,0.00,,,0.00,Weather View 32 v70,2013-01-23 08:09:00,
2013-01-23 00:14:00,36.0,0.0,29.65,NNE,22,0.0,0.0,0,0.00,,,0.00,Weather View 32 v70,2013-01-23 08:14:00,
2013-01-23 00:19:00,36.0,0.0,29.68,South,180,0.0,0.0,0,0.00,,,0.00,Weather View 32 v70,2013-01-23 08:19:00,
2013-01-23 00:24:00,36.0,0.0,29.68,West,270,0.0,0.0,0,0.00,,,0.00,Weather View 32 v70,2013-01-23 08:24:00,
2013-01-23 00:29:00,36.0,0.0,29.68,NNW,338,0.0,0.0,0,0.00,,,0.00,Weather View 32 v70,2013-01-23 08:29:00,
2013-01-23 00:34:00,36.0,0.0,29.68,North,0,0.0,0.0,0,0.00,,,0.00,Weather View 32 v70,2013-01-23 08:34:00,
2013-01-23 00:39:00,36.0,0.0,29.67,NNE,22,0.0,0.0,0,0.00,,,0.00,Weather View 32 v70,2013-01-23 08:39:00,
2013-01-23 00:44:00,36.0,0.0,29.67,NW,315,0.0,0.0,0,0.00,,,0.00,Weather View 32 v70,2013-01-23 08:44:00,
2013-01-23 00:49:00,36.0,0.0,29.65,ENE,68,0.0,0.0,0,0.00,,,0.00,Weather View 32 v70,2013-01-23 08:49:00,
2013-01-23 00:54:00,36.0,0.0,29.65,NNW,338,0.0,0.0,0,0.00,,,0.00,Weather View 32 v70,2013-01-23 08:54:00,
2013-01-23 00:59:00,36.0,0.0,29.65,West,270,0.0,0.0,0,0.00,,,0.00,Weather View 32 v70,2013-01-23 08:59:00,
2013-01-23 01:04:00,36.0,0.0,29.68,SW,225,0.0,0.0,0,0.00,,,0.00,Weather View 32 v70,2013-01-23 09:04:00,
2013-01-23 01:09:00,36.0,0.0,29.69,South,180,0.0,0.0,0,0.00,,,0.00,Weather View 32 v70,2013-01-23 09:09:00,
2013-01-23 01:14:00,36.0,0.0,29.68,NW,315,0.0,0.0,0,0.00,,,0.00,Weather View 32 v70,2013-01-23 09:14:00,
2013-01-23 01:19:00,36.0,0.0,29.66,NW,315,0.0,0.0,0,0.00,,,0.00,Weather View 32 v70,2013-01-23 09:19:00,
2013-01-23 01:24:00,36.0,0.0,29.66,North,0,0.0,0.0,0,0.00,,,0.00,Weather View 32 v70,2013-01-23 09:24:00,
2013-01-23 01:29:00,36.0,0.0,29.66,NNW,338,0.0,0.0,0,0.00,,,0.00,Weather View 32 v70,2013-01-23 09:29:00,
2013-01-23 01:34:00,36.0,0.0,29.67,North,0,0.0,0.0,0,0.00,,,0.00,Weather View 32 v70,2013-01-23 09:34:00,
2013-01-23 01:39:00,36.0,0.0,29.68,NW,315,0.0,0.0,0,0.00,,,0.00,Weather View 32 v70,2013-01-23 09:39:00,
2013-01-23 01:44:00,36.0,0.0,29.68,NNW,338,0.0,0.0,0,0.00,,,0.00,Weather View 32 v70,2013-01-23 09:44:00,
2013-01-23 01:49:00,36.0,0.0,29.70,SSW,202,0.0,0.0,0,0.00,,,0.00,Weather View 32 v70,2013-01-23 09:49:00,
2013-01-23 01:54:00,36.0,0.0,29.69,NW,315,0.0,0.0,0,0.00,,,0.00,Weather View 32 v70,2013-01-23 09:54:00,
2013-01-23 01:59:00,36.0,0.0,29.68,NW,315,0.0,0.0,0,0.00,,,0.00,Weather View 32 v70,2013-01-23 09:59:00,
2013-01-23 02:04:00,36.0,0.0,29.68,ENE,68,0.0,0.0,0,0.00,,,0.00,Weather View 32 v70,2013-01-23 10:04:00,
2013-01-23 02:09:00,36.0,0.0,29.69,NNW,338,0.0,0.0,0,0.00,,,0.00,Weather View 32 v70,2013-01-23 10:09:00,
2013-01-23 02:14:00,36.0,0.0,29.68,NW,315,0.0,0.0,0,0.00,,,0.00,Weather View 32 v70,2013-01-23 10:14:00,
2013-01-23 02:19:00,36.0,0.0,29.70,SSW,202,0.0,0.0,0,0.00,,,0.00,Weather View 32 v70,2013-01-23 10:19:00,
2013-01-23 02:24:00,36.0,0.0,29.69,WNW,292,0.0,0.0,0,0.00,,,0.00,Weather View 32 v70,2013-01-23 10:24:00,
2013-01-23 02:29:00,36.0,0.0,29.71,WSW,248,0.0,0.0,0,0.00,,,0.00,Weather View 32 v70,2013-01-23 10:29:00,
2013-01-23 02:34:00,36.0,0.0,29.70,NNW,338,0.0,0.0,0,0.00,,,0.00,Weather View 32 v70,2013-01-23 10:34:00,
2013-01-23 02:42:00,36.0,0.0,29.70,NNW,338,0.0,0.0,0,0.00,,,0.00,Weather View 32 v70,2013-01-23 10:42:00,
2013-01-23 02:47:00,36.0,0.0,29.71,West,270,0.0,0.0,0,0.00,,,0.00,Weather View 32 v70,2013-01-23 10:47:00,
2013-01-23 02:52:00,36.0,0.0,29.70,NNW,338,0.0,0.0,0,0.00,,,0.00,Weather View 32 v70,2013-01-23 10:52:00,
2013-01-23 02:57:00,36.0,0.0,29.71,WSW,248,0.0,0.0,0,0.00,,,0.00,Weather View 32 v70,2013-01-23 10:57:00,
2013-01-23 03:02:00,36.0,0.0,29.71,NW,315,0.0,0.0,0,0.00,,,0.00,Weather View 32 v70,2013-01-23 11:02:00,
2013-01-23 03:07:00,36.0,0.0,29.70,WNW,292,0.0,0.0,0,0.00,,,0.00,Weather View 32 v70,2013-01-23 11:07:00,
2013-01-23 03:12:00,36.0,0.0,29.70,NW,315,0.0,0.0,0,0.00,,,0.00,Weather View 32 v70,2013-01-23 11:12:00,
2013-01-23 03:17:00,36.0,0.0,29.69,ENE,68,0.0,0.0,0,0.00,,,0.00,Weather View 32 v70,2013-01-23 11:17:00,
2013-01-23 03:22:00,36.0,0.0,29.69,NNW,338,0.0,0.0,0,0.00,,,0.00,Weather View 32 v70,2013-01-23 11:22:00,
2013-01-23 03:28:00,36.0,0.0,29.68,West,270,0.0,0.0,0,0.00,,,0.00,Weather View 32 v70,2013-01-23 11:28:00,
2013-01-23 03:33:00,36.0,0.0,29.68,SSE,158,0.0,0.0,0,0.00,,,0.00,Weather View 32 v70,2013-01-23 11:33:00,
2013-01-23 03:38:00,36.0,0.0,29.68,East,90,0.0,0.0,0,0.00,,,0.00,Weather View 32 v70,2013-01-23 11:38:00,
2013-01-23 03:43:00,36.0,0.0,29.68,SSE,158,0.0,0.0,0,0.00,,,0.00,Weather View 32 v70,2013-01-23 11:43:00,
2013-01-23 03:48:00,36.0,0.0,29.70,SW,225,0.0,0.0,0,0.00,,,0.00,Weather View 32 v70,2013-01-23 11:48:00,
2013-01-23 03:53:00,36.0,0.0,29.70,WSW,248,0.0,0.0,0,0.00,,,0.00,Weather View 32 v70,2013-01-23 11:53:00,
2013-01-23 03:58:00,36.0,0.0,29.70,SW,225,0.0,0.0,0,0.00,,,0.00,Weather View 32 v70,2013-01-23 11:58:00,
2013-01-23 04:03:00,36.0,0.0,29.69,NW,315,0.0,0.0,0,0.00,,,0.00,Weather View 32 v70,2013-01-23 12:03:00,
2013-01-23 04:08:00,36.0,0.0,29.69,South,180,0.0,0.0,0,0.00,,,0.00,Weather View 32 v70,2013-01-23 12:08:00,
2013-01-23 04:13:00,36.0,0.0,29.68,WSW,248,0.0,0.0,0,0.00,,,0.00,Weather View 32 v70,2013-01-23 12:13:00,
2013-01-23 04:18:00,36.0,0.0,29.67,NW,315,0.0,0.0,0,0.00,,,0.00,Weather View 32 v70,2013-01-23 12:18:00,
2013-01-23 04:23:00,36.0,0.0,29.66,ESE,112,0.0,0.0,0,0.00,,,0.00,Weather View 32 v70,2013-01-23 12:23:00,
2013-01-23 04:28:00,36.0,0.0,29.65,NE,45,0.0,0.0,0,0.00,,,0.00,Weather View 32 v70,2013-01-23 12:28:00,
2013-01-23 04:33:00,36.0,0.0,29.65,NNW,338,0.0,0.0,0,0.00,,,0.00,Weather View 32 v70,2013-01-23 12:33:00,
2013-01-23 04:38:00,36.0,0.0,29.65,NW,315,0.0,0.0,0,0.00,,,0.00,Weather View 32 v70,2013-01-23 12:38:00,
2013-01-23 04:43:00,36.0,0.0,29.64,West,270,0.0,0.0,0,0.00,,,0.00,Weather View 32 v70,2013-01-23 12:43:00,
2013-01-23 04:48:00,36.0,0.0,29.64,ENE,68,0.0,0.0,0,0.00,,,0.00,Weather View 32 v70,2013-01-23 12:48:00,
2013-01-23 04:53:00,36.0,0.0,29.65,ENE,68,0.0,0.0,0,0.00,,,0.00,Weather View 32 v70,2013-01-23 12:53:00,
2013-01-23 04:58:00,36.0,0.0,29.64,SE,135,0.0,0.0,0,0.00,,,0.00,Weather View 32 v70,2013-01-23 12:58:00,
2013-01-23 05:03:00,36.0,0.0,29.64,WSW,248,0.0,0.0,0,0.00,,,0.00,Weather View 32 v70,2013-01-23 13:03:00,
2013-01-23 05:08:00,36.0,0.0,29.63,NW,315,0.0,0.0,0,0.00,,,0.00,Weather View 32 v70,2013-01-23 13:08:00,
2013-01-23 05:13:00,36.0,0.0,29.63,WSW,248,0.0,0.0,0,0.00,,,0.00,Weather View 32 v70,2013-01-23 13:13:00,
2013-01-23 05:18:00,36.0,0.0,29.63,SSW,202,0.0,0.0,0,0.00,,,0.00,Weather View 32 v70,2013-01-23 13:18:00,
2013-01-23 05:23:00,36.0,0.0,29.65,WSW,248,0.0,0.0,0,0.00,,,0.00,Weather View 32 v70,2013-01-23 13:23:00,
2013-01-23 05:28:00,37.0,0.0,29.65,WSW,248,0.0,0.0,0,0.00,,,0.00,Weather View 32 v70,2013-01-23 13:28:00,
2013-01-23 05:33:00,37.0,0.0,29.65,South,180,0.0,0.0,0,0.00,,,0.00,Weather View 32 v70,2013-01-23 13:33:00,
2013-01-23 05:38:00,37.0,0.0,29.65,WSW,248,0.0,0.0,0,0.00,,,0.00,Weather View 32 v70,2013-01-23 13:38:00,
2013-01-23 05:43:00,37.0,0.0,29.65,West,270,0.0,0.0,0,0.00,,,0.00,Weather View 32 v70,2013-01-23 13:43:00,
2013-01-23 05:48:00,37.0,0.0,29.64,West,270,0.0,0.0,0,0.00,,,0.00,Weather View 32 v70,2013-01-23 13:48:00,
2013-01-23 05:53:00,38.0,0.0,29.63,WSW,248,0.0,0.0,0,0.00,,,0.00,Weather View 32 v70,2013-01-23 13:53:00,
2013-01-23 05:58:00,38.0,0.0,29.63,SSW,202,0.0,0.0,0,0.00,,,0.00,Weather View 32 v70,2013-01-23 13:58:00,
2013-01-23 06:03:00,38.0,0.0,29.63,WSW,248,0.0,0.0,0,0.00,,,0.00,Weather View 32 v70,2013-01-23 14:03:00,
2013-01-23 06:08:00,38.0,0.0,29.63,SW,225,0.0,0.0,0,0.00,,,0.00,Weather View 32 v70,2013-01-23 14:08:00,
2013-01-23 06:13:00,38.0,0.0,29.62,WSW,248,0.0,0.0,0,0.00,,,0.00,Weather View 32 v70,2013-01-23 14:13:00,
2013-01-23 06:18:00,38.0,0.0,29.62,West,270,0.0,0.0,0,0.00,,,0.00,Weather View 32 v70,2013-01-23 14:18:00,
2013-01-23 06:23:00,38.0,0.0,29.62,SSW,202,0.0,0.0,0,0.00,,,0.00,Weather View 32 v70,2013-01-23 14:23:00,
2013-01-23 06:28:00,38.0,0.0,29.63,SSW,202,0.0,0.0,0,0.00,,,0.00,Weather View 32 v70,2013-01-23 14:28:00,
2013-01-23 06:33:00,38.0,0.0,29.63,SW,225,0.0,0.0,0,0.00,,,0.00,Weather View 32 v70,2013-01-23 14:33:00,
2013-01-23 06:38:00,38.0,0.0,29.63,SSW,202,0.0,0.0,0,0.00,,,0.00,Weather View 32 v70,2013-01-23 14:38:00,
2013-01-23 06:43:00,38.0,0.0,29.63,WSW,248,0.0,0.0,0,0.00,,,0.00,Weather View 32 v70,2013-01-23 14:43:00,
2013-01-23 06:48:00,38.0,0.0,29.62,SW,225,0.0,0.0,0,0.00,,,0.00,Weather View 32 v70,2013-01-23 14:48:00,
2013-01-23 06:53:00,38.0,0.0,29.62,SW,225,0.0,0.0,0,0.00,,,0.00,Weather View 32 v70,2013-01-23 14:53:00,
2013-01-23 06:58:00,39.0,0.0,29.61,SW,225,0.0,0.0,0,0.00,,,0.00,Weather View 32 v70,2013-01-23 14:58:00,
2013-01-23 07:03:00,39.0,0.0,29.61,SW,225,0.0,0.0,0,0.00,,,0.00,Weather View 32 v70,2013-01-23 15:03:00,
2013-01-23 07:08:00,39.0,0.0,29.61,SW,225,0.0,0.0,0,0.00,,,0.00,Weather View 32 v70,2013-01-23 15:08:00,
2013-01-23 07:13:00,39.0,0.0,29.61,SW,225,0.0,0.0,0,0.00,,,0.00,Weather View 32 v70,2013-01-23 15:13:00,
2013-01-23 07:18:00,39.0,0.0,29.61,SSW,202,0.0,0.0,0,0.00,,,0.00,Weather View 32 v70,2013-01-23 15:18:00,
2013-01-23 07:23:00,39.0,0.0,29.62,SW,225,0.0,0.0,0,0.00,,,0.00,Weather View 32 v70,2013-01-23 15:23:00,
2013-01-23 07:28:00,39.0,0.0,29.62,SSW,202,0.0,0.0,0,0.00,,,0.00,Weather View 32 v70,2013-01-23 15:28:00,
2013-01-23 07:33:00,39.0,0.0,29.61,SW,225,0.0,0.0,0,0.00,,,0.00,Weather View 32 v70,2013-01-23 15:33:00,
2013-01-23 07:38:00,39.0,0.0,29.61,SW,225,0.0,0.0,0,0.00,,,0.00,Weather View 32 v70,2013-01-23 15:38:00,
2013-01-23 07:43:00,39.0,0.0,29.62,South,180,0.0,0.0,0,0.00,,,0.00,Weather View 32 v70,2013-01-23 15:43:00,
2013-01-23 07:48:00,39.0,0.0,29.62,WSW,248,0.0,0.0,0,0.00,,,0.00,Weather View 32 v70,2013-01-23 15:48:00,
2013-01-23 07:53:00,39.0,0.0,29.61,SW,225,0.0,0.0,0,0.00,,,0.00,Weather View 32 v70,2013-01-23 15:53:00,
2013-01-23 07:58:00,39.0,0.0,29.61,SW,225,0.0,0.0,0,0.00,,,0.00,Weather View 32 v70,2013-01-23 15:58:00,
2013-01-23 08:03:00,39.0,0.0,29.61,South,180,0.0,0.0,0,0.00,,,0.00,Weather View 32 v70,2013-01-23 16:03:00,
2013-01-23 08:08:00,40.0,0.0,29.61,South,180,0.0,0.0,0,0.00,,,0.00,Weather View 32 v70,2013-01-23 16:08:00,
2013-01-23 08:13:00,40.0,0.0,29.61,WNW,292,0.0,0.0,0,0.00,,,0.00,Weather View 32 v70,2013-01-23 16:13:00,
2013-01-23 08:18:00,40.0,0.0,29.61,SW,225,0.0,0.0,0,0.00,,,0.00,Weather View 32 v70,2013-01-23 16:18:00,
2013-01-23 08:23:00,39.0,0.0,29.61,SW,225,0.0,0.0,0,0.00,,,0.00,Weather View 32 v70,2013-01-23 16:23:00,
2013-01-23 08:28:00,39.0,0.0,29.61,SE,135,0.0,0.0,0,0.00,,,0.00,Weather View 32 v70,2013-01-23 16:28:00,
2013-01-23 08:33:00,40.0,0.0,29.61,SW,225,0.0,0.0,0,0.00,,,0.00,Weather View 32 v70,2013-01-23 16:33:00,
2013-01-23 08:38:00,40.0,0.0,29.61,SW,225,0.0,0.0,0,0.00,,,0.00,Weather View 32 v70,2013-01-23 16:38:00,
2013-01-23 08:43:00,40.0,0.0,29.61,WNW,292,0.0,0.0,0,0.01,,,0.01,Weather View 32 v70,2013-01-23 16:43:00,
2013-01-23 08:48:00,40.0,0.0,29.61,WNW,292,0.0,0.0,0,0.01,,,0.01,Weather View 32 v70,2013-01-23 16:48:00,
2013-01-23 08:53:00,39.0,0.0,29.62,WNW,292,0.0,0.0,0,0.01,,,0.01,Weather View 32 v70,2013-01-23 16:53:00,
2013-01-23 08:58:00,39.0,0.0,29.62,WNW,292,0.0,0.0,0,0.01,,,0.01,Weather View 32 v70,2013-01-23 16:58:00,
2013-01-23 09:03:00,39.0,0.0,29.62,West,270,0.0,0.0,0,0.01,,,0.01,Weather View 32 v70,2013-01-23 17:03:00,
2013-01-23 09:08:00,39.0,0.0,29.62,NW,315,0.0,0.0,0,0.02,,,0.02,Weather View 32 v70,2013-01-23 17:08:00,
2013-01-23 09:13:00,39.0,0.0,29.63,West,270,0.0,0.0,0,0.02,,,0.02,Weather View 32 v70,2013-01-23 17:13:00,
2013-01-23 09:18:00,39.0,0.0,29.63,West,270,0.0,0.0,0,0.02,,,0.02,Weather View 32 v70,2013-01-23 17:18:00,
2013-01-23 09:23:00,39.0,0.0,29.63,WNW,292,0.0,0.0,0,0.02,,,0.02,Weather View 32 v70,2013-01-23 17:23:00,
2013-01-23 09:28:00,39.0,0.0,29.63,WNW,292,0.0,0.0,0,0.03,,,0.03,Weather View 32 v70,2013-01-23 17:28:00,
2013-01-23 09:33:00,39.0,0.0,29.63,WNW,292,0.0,0.0,0,0.03,,,0.03,Weather View 32 v70,2013-01-23 17:33:00,
2013-01-23 09:38:00,39.0,0.0,29.63,WNW,292,0.0,0.0,0,0.03,,,0.03,Weather View 32 v70,2013-01-23 17:38:00,
2013-01-23 09:43:00,39.0,0.0,29.63,WNW,292,0.0,0.0,0,0.03,,,0.04,Weather View 32 v70,2013-01-23 17:43:00,
2013-01-23 09:48:00,39.0,0.0,29.63,WNW,292,0.0,0.0,0,0.04,,,0.05,Weather View 32 v70,2013-01-23 17:48:00,
2013-01-23 09:53:00,39.0,0.0,29.62,WSW,248,0.0,0.0,0,0.04,,,0.05,Weather View 32 v70,2013-01-23 17:53:00,
2013-01-23 09:58:00,39.0,0.0,29.62,WSW,248,0.0,0.0,0,0.05,,,0.06,Weather View 32 v70,2013-01-23 17:58:00,
2013-01-23 10:03:00,39.0,0.0,29.62,WSW,248,0.0,0.0,0,0.05,,,0.06,Weather View 32 v70,2013-01-23 18:03:00,
2013-01-23 10:08:00,40.0,0.0,29.62,SW,225,0.0,0.0,0,0.05,,,0.07,Weather View 32 v70,2013-01-23 18:08:00,
2013-01-23 10:13:00,40.0,0.0,29.62,WSW,248,0.0,0.0,0,0.05,,,0.07,Weather View 32 v70,2013-01-23 18:13:00,
2013-01-23 10:18:00,40.0,0.0,29.63,West,270,0.0,0.0,0,0.05,,,0.08,Weather View 32 v70,2013-01-23 18:18:00,
2013-01-23 10:23:00,40.0,0.0,29.63,SSW,202,0.0,0.0,0,0.06,,,0.08,Weather View 32 v70,2013-01-23 18:23:00,
2013-01-23 10:28:00,40.0,0.0,29.63,SW,225,0.0,0.0,0,0.05,,,0.09,Weather View 32 v70,2013-01-23 18:28:00,
2013-01-23 10:33:00,40.0,0.0,29.63,SSW,202,0.0,0.0,0,0.06,,,0.09,Weather View 32 v70,2013-01-23 18:33:00,
2013-01-23 10:38:00,40.0,0.0,29.63,SW,225,0.0,0.0,0,0.06,,,0.09,Weather View 32 v70,2013-01-23 18:38:00,
2013-01-23 10:43:00,40.0,0.0,29.63,WSW,248,0.0,0.0,0,0.06,,,0.10,Weather View 32 v70,2013-01-23 18:43:00,
2013-01-23 10:48:00,40.0,0.0,29.63,SW,225,0.0,0.0,0,0.05,,,0.10,Weather View 32 v70,2013-01-23 18:48:00,
2013-01-23 10:53:00,40.0,0.0,29.63,SSW,202,0.0,0.0,0,0.06,,,0.11,Weather View 32 v70,2013-01-23 18:53:00,
2013-01-23 10:58:00,40.0,0.0,29.63,WSW,248,0.0,0.0,0,0.05,,,0.11,Weather View 32 v70,2013-01-23 18:58:00,
2013-01-23 11:03:00,40.0,0.0,29.63,WSW,248,0.0,0.0,0,0.06,,,0.12,Weather View 32 v70,2013-01-23 19:03:00,
2013-01-23 11:08:00,40.0,0.0,29.63,SSW,202,0.0,0.0,0,0.05,,,0.12,Weather View 32 v70,2013-01-23 19:08:00,
2013-01-23 11:13:00,40.0,0.0,29.63,SW,225,0.0,0.0,0,0.05,,,0.12,Weather View 32 v70,2013-01-23 19:13:00,
2013-01-23 11:18:00,40.0,0.0,29.64,SW,225,0.0,0.0,0,0.06,,,0.13,Weather View 32 v70,2013-01-23 19:18:00,
2013-01-23 11:23:00,40.0,0.0,29.63,SW,225,0.0,0.0,0,0.05,,,0.13,Weather View 32 v70,2013-01-23 19:23:00,
2013-01-23 11:28:00,40.0,0.0,29.63,WSW,248,0.0,0.0,0,0.06,,,0.14,Weather View 32 v70,2013-01-23 19:28:00,
2013-01-23 11:33:00,40.0,0.0,29.63,SSW,202,0.0,0.0,0,0.06,,,0.15,Weather View 32 v70,2013-01-23 19:33:00,
2013-01-23 11:38:00,40.0,0.0,29.63,SSW,202,0.0,0.0,0,0.06,,,0.15,Weather View 32 v70,2013-01-23 19:38:00,
2013-01-23 11:43:00,40.0,0.0,29.62,SW,225,0.0,0.0,0,0.05,,,0.15,Weather View 32 v70,2013-01-23 19:43:00,
2013-01-23 11:48:00,40.0,0.0,29.62,SW,225,0.0,0.0,0,0.06,,,0.16,Weather View 32 v70,2013-01-23 19:48:00,
2013-01-23 11:53:00,40.0,0.0,29.62,South,180,0.0,0.0,0,0.05,,,0.16,Weather View 32 v70,2013-01-23 19:53:00,
2013-01-23 11:58:00,39.0,0.0,29.62,SW,225,0.0,0.0,0,0.05,,,0.16,Weather View 32 v70,2013-01-23 19:58:00,
2013-01-23 12:03:00,39.0,0.0,29.61,SSW,202,0.0,0.0,0,0.05,,,0.17,Weather View 32 v70,2013-01-23 20:03:00,
2013-01-23 12:08:00,39.0,0.0,29.61,South,180,0.0,0.0,0,0.05,,,0.17,Weather View 32 v70,2013-01-23 20:08:00,
2013-01-23 12:13:00,39.0,0.0,29.61,SW,225,0.0,0.0,0,0.06,,,0.18,Weather View 32 v70,2013-01-23 20:13:00,
2013-01-23 12:18:00,39.0,0.0,29.61,SSW,202,0.0,0.0,0,0.06,,,0.19,Weather View 32 v70,2013-01-23 20:18:00,
2013-01-23 12:23:00,39.0,0.0,29.61,SW,225,0.0,0.0,0,0.06,,,0.19,Weather View 32 v70,2013-01-23 20:23:00,
2013-01-23 12:28:00,39.0,0.0,29.60,SSW,202,0.0,0.0,0,0.05,,,0.19,Weather View 32 v70,2013-01-23 20:28:00,
2013-01-23 12:33:00,39.0,0.0,29.60,South,180,0.0,0.0,0,0.04,,,0.19,Weather View 32 v70,2013-01-23 20:33:00,
2013-01-23 12:38:00,39.0,0.0,29.60,SSW,202,0.0,0.0,0,0.04,,,0.19,Weather View 32 v70,2013-01-23 20:38:00,
2013-01-23 12:43:00,40.0,0.0,29.60,SW,225,0.0,0.0,0,0.05,,,0.20,Weather View 32 v70,2013-01-23 20:43:00,
2013-01-23 12:48:00,40.0,0.0,29.60,SW,225,0.0,0.0,0,0.04,,,0.20,Weather View 32 v70,2013-01-23 20:48:00,
2013-01-23 12:53:00,40.0,0.0,29.59,SW,225,0.0,0.0,0,0.04,,,0.20,Weather View 32 v70,2013-01-23 20:53:00,
2013-01-23 12:58:00,40.0,0.0,29.59,SSW,202,0.0,0.0,0,0.04,,,0.20,Weather View 32 v70,2013-01-23 20:58:00,
2013-01-23 13:03:00,40.0,0.0,29.59,SW,225,0.0,0.0,0,0.04,,,0.21,Weather View 32 v70,2013-01-23 21:03:00,
2013-01-23 13:08:00,40.0,0.0,29.59,SW,225,0.0,0.0,0,0.04,,,0.21,Weather View 32 v70,2013-01-23 21:08:00,
2013-01-23 13:13:00,40.0,0.0,29.59,SSW,202,0.0,0.0,0,0.03,,,0.21,Weather View 32 v70,2013-01-23 21:13:00,
2013-01-23 13:18:00,40.0,0.0,29.59,SSW,202,0.0,0.0,0,0.02,,,0.22,Weather View 32 v70,2013-01-23 21:18:00,
2013-01-23 13:23:00,40.0,0.0,29.59,SSW,202,0.0,0.0,0,0.03,,,0.22,Weather View 32 v70,2013-01-23 21:23:00,
2013-01-23 13:28:00,40.0,0.0,29.59,SSW,202,0.0,0.0,0,0.03,,,0.22,Weather View 32 v70,2013-01-23 21:28:00,
2013-01-23 13:33:00,40.0,0.0,29.59,SW,225,0.0,0.0,0,0.03,,,0.22,Weather View 32 v70,2013-01-23 21:33:00,
2013-01-23 13:38:00,40.0,0.0,29.59,SW,225,0.0,0.0,0,0.03,,,0.22,Weather View 32 v70,2013-01-23 21:38:00,
2013-01-23 13:43:00,40.0,0.0,29.59,SW,225,0.0,0.0,0,0.02,,,0.22,Weather View 32 v70,2013-01-23 21:43:00,
2013-01-23 13:48:00,40.0,0.0,29.59,SW,225,0.0,0.0,0,0.03,,,0.23,Weather View 32 v70,2013-01-23 21:48:00,
2013-01-23 13:53:00,40.0,0.0,29.59,SW,225,0.0,0.0,0,0.03,,,0.23,Weather View 32 v70,2013-01-23 21:53:00,
2013-01-23 13:58:00,40.0,0.0,29.60,SW,225,0.0,0.0,0,0.04,,,0.24,Weather View 32 v70,2013-01-23 21:58:00,
2013-01-23 14:03:00,40.0,0.0,29.59,WSW,248,0.0,0.0,0,0.03,,,0.24,Weather View 32 v70,2013-01-23 22:03:00,
2013-01-23 14:08:00,40.0,0.0,29.60,WSW,248,0.0,0.0,0,0.04,,,0.25,Weather View 32 v70,2013-01-23 22:08:00,
2013-01-23 14:13:00,40.0,0.0,29.60,SW,225,0.0,0.0,0,0.04,,,0.25,Weather View 32 v70,2013-01-23 22:13:00,
2013-01-23 14:18:00,40.0,0.0,29.60,SW,225,0.0,0.0,0,0.04,,,0.25,Weather View 32 v70,2013-01-23 22:18:00,
2013-01-23 14:23:00,40.0,0.0,29.60,SSW,202,0.0,0.0,0,0.04,,,0.26,Weather View 32 v70,2013-01-23 22:23:00,
2013-01-23 14:28:00,40.0,0.0,29.60,SW,225,0.0,0.0,0,0.04,,,0.26,Weather View 32 v70,2013-01-23 22:28:00,
2013-01-23 14:33:00,40.0,0.0,29.60,SSW,202,0.0,0.0,0,0.04,,,0.26,Weather View 32 v70,2013-01-23 22:33:00,
2013-01-23 14:38:00,40.0,0.0,29.60,SSW,202,0.0,0.0,0,0.05,,,0.27,Weather View 32 v70,2013-01-23 22:38:00,
2013-01-23 14:43:00,40.0,0.0,29.60,SSW,202,0.0,0.0,0,0.05,,,0.27,Weather View 32 v70,2013-01-23 22:43:00,
2013-01-23 14:48:00,40.0,0.0,29.60,SW,225,0.0,0.0,0,0.04,,,0.27,Weather View 32 v70,2013-01-23 22:48:00,
2013-01-23 14:53:00,40.0,0.0,29.60,SW,225,0.0,0.0,0,0.04,,,0.27,Weather View 32 v70,2013-01-23 22:53:00,
2013-01-23 14:58:00,40.0,0.0,29.61,South,180,0.0,3.0,0,0.03,,,0.27,Weather View 32 v70,2013-01-23 22:58:00,
2013-01-23 15:03:00,40.0,0.0,29.61,South,180,0.0,3.0,0,0.04,,,0.28,Weather View 32 v70,2013-01-23 23:03:00,
2013-01-23 15:08:00,40.0,0.0,29.61,SW,225,0.0,3.0,0,0.03,,,0.28,Weather View 32 v70,2013-01-23 23:08:00,
2013-01-23 15:13:00,40.0,0.0,29.61,SW,225,1.0,3.0,0,0.03,,,0.28,Weather View 32 v70,2013-01-23 23:13:00,
2013-01-23 15:18:00,40.0,0.0,29.61,WSW,248,1.0,3.0,0,0.03,,,0.28,Weather View 32 v70,2013-01-23 23:18:00,
2013-01-23 15:23:00,39.0,0.0,29.62,SW,225,2.0,4.0,0,0.02,,,0.28,Weather View 32 v70,2013-01-23 23:23:00,
2013-01-23 15:28:00,39.0,0.0,29.62,WSW,248,0.0,4.0,0,0.02,,,0.28,Weather View 32 v70,2013-01-23 23:28:00,
2013-01-23 15:33:00,39.0,0.0,29.62,SE,135,3.0,5.0,0,0.02,,,0.28,Weather View 32 v70,2013-01-23 23:33:00,
2013-01-23 15:38:00,39.0,0.0,29.62,SSW,202,0.0,5.0,0,0.01,,,0.28,Weather View 32 v70,2013-01-23 23:38:00,
2013-01-23 15:43:00,39.0,0.0,29.62,SSW,202,0.0,5.0,0,0.02,,,0.29,Weather View 32 v70,2013-01-23 23:43:00,
2013-01-23 15:48:00,39.0,0.0,29.63,SSW,202,0.0,5.0,0,0.02,,,0.29,Weather View 32 v70,2013-01-23 23:48:00,
2013-01-23 15:53:00,39.0,0.0,29.63,SW,225,0.0,5.0,0,0.02,,,0.29,Weather View 32 v70,2013-01-23 23:53:00,
2013-01-23 15:58:00,39.0,0.0,29.62,SW,225,0.0,5.0,0,0.02,,,0.29,Weather View 32 v70,2013-01-23 23:58:00,
2013-01-23 16:03:00,39.0,0.0,29.63,WSW,248,0.0,5.0,0,0.01,,,0.29,Weather View 32 v70,2013-01-24 00:03:00,
2013-01-23 16:08:00,39.0,0.0,29.63,SSW,202,0.0,5.0,0,0.01,,,0.29,Weather View 32 v70,2013-01-24 00:08:00,
2013-01-23 16:13:00,39.0,0.0,29.63,SSW,202,0.0,5.0,0,0.01,,,0.29,Weather View 32 v70,2013-01-24 00:13:00,
2013-01-23 16:18:00,39.0,0.0,29.63,SW,225,0.0,5.0,0,0.01,,,0.29,Weather View 32 v70,2013-01-24 00:18:00,
2013-01-23 16:23:00,39.0,0.0,29.64,SSW,202,0.0,5.0,0,0.01,,,0.29,Weather View 32 v70,2013-01-24 00:23:00,
2013-01-23 16:28:00,39.0,0.0,29.64,SW,225,0.0,5.0,0,0.01,,,0.29,Weather View 32 v70,2013-01-24 00:28:00,
2013-01-23 16:33:00,39.0,0.0,29.65,South,180,0.0,4.0,0,0.01,,,0.29,Weather View 32 v70,2013-01-24 00:33:00,
2013-01-23 16:38:00,39.0,0.0,29.65,SW,225,0.0,2.0,0,0.01,,,0.29,Weather View 32 v70,2013-01-24 00:38:00,
2013-01-23 16:43:00,39.0,0.0,29.65,SSW,202,0.0,2.0,0,0.00,,,0.29,Weather View 32 v70,2013-01-24 00:43:00,
2013-01-23 16:48:00,39.0,0.0,29.65,SSW,202,0.0,2.0,0,0.00,,,0.29,Weather View 32 v70,2013-01-24 00:48:00,
2013-01-23 16:53:00,39.0,0.0,29.65,SSW,202,0.0,2.0,0,0.00,,,0.29,Weather View 32 v70,2013-01-24 00:53:00,
2013-01-23 16:58:00,39.0,0.0,29.66,SW,225,0.0,2.0,0,0.00,,,0.29,Weather View 32 v70,2013-01-24 00:58:00,
2013-01-23 17:03:00,39.0,0.0,29.66,WSW,248,0.0,1.0,0,0.00,,,0.29,Weather View 32 v70,2013-01-24 01:03:00,
2013-01-23 17:08:00,39.0,0.0,29.66,SSW,202,0.0,0.0,0,0.00,,,0.29,Weather View 32 v70,2013-01-24 01:08:00,
2013-01-23 17:13:00,39.0,0.0,29.66,SW,225,0.0,0.0,0,0.00,,,0.29,Weather View 32 v70,2013-01-24 01:13:00,
2013-01-23 17:18:00,39.0,0.0,29.67,SSW,202,0.0,0.0,0,0.00,,,0.29,Weather View 32 v70,2013-01-24 01:18:00,
2013-01-23 17:23:00,39.0,0.0,29.67,SW,225,0.0,0.0,0,0.00,,,0.29,Weather View 32 v70,2013-01-24 01:23:00,
2013-01-23 17:28:00,39.0,0.0,29.67,WSW,248,0.0,0.0,0,0.00,,,0.29,Weather View 32 v70,2013-01-24 01:28:00,
2013-01-23 17:33:00,39.0,0.0,29.68,SW,225,0.0,0.0,0,0.00,,,0.29,Weather View 32 v70,2013-01-24 01:33:00,
2013-01-23 17:38:00,39.0,0.0,29.68,SW,225,0.0,0.0,0,0.00,,,0.29,Weather View 32 v70,2013-01-24 01:38:00,
2013-01-23 17:43:00,39.0,0.0,29.68,SSW,202,0.0,0.0,0,0.00,,,0.29,Weather View 32 v70,2013-01-24 01:43:00,
2013-01-23 17:48:00,39.0,0.0,29.68,SSW,202,0.0,0.0,0,0.00,,,0.29,Weather View 32 v70,2013-01-24 01:48:00,
2013-01-23 17:53:00,39.0,0.0,29.68,SSW,202,0.0,0.0,0,0.00,,,0.29,Weather View 32 v70,2013-01-24 01:53:00,
2013-01-23 17:58:00,39.0,0.0,29.68,SSW,202,0.0,0.0,0,0.00,,,0.29,Weather View 32 v70,2013-01-24 01:58:00,
2013-01-23 18:03:00,39.0,0.0,29.68,SSW,202,0.0,0.0,0,0.00,,,0.29,Weather View 32 v70,2013-01-24 02:03:00,
2013-01-23 18:08:00,39.0,0.0,29.69,SSW,202,0.0,0.0,0,0.00,,,0.29,Weather View 32 v70,2013-01-24 02:08:00,
2013-01-23 18:13:00,39.0,0.0,29.69,WSW,248,0.0,0.0,0,0.00,,,0.29,Weather View 32 v70,2013-01-24 02:13:00,
2013-01-23 18:18:00,39.0,0.0,29.69,West,270,0.0,0.0,0,0.01,,,0.30,Weather View 32 v70,2013-01-24 02:18:00,
2013-01-23 18:23:00,39.0,0.0,29.69,WNW,292,0.0,0.0,0,0.01,,,0.30,Weather View 32 v70,2013-01-24 02:23:00,
2013-01-23 18:28:00,39.0,0.0,29.70,NNW,338,0.0,0.0,0,0.01,,,0.30,Weather View 32 v70,2013-01-24 02:28:00,
2013-01-23 18:33:00,39.0,0.0,29.69,East,90,0.0,0.0,0,0.01,,,0.30,Weather View 32 v70,2013-01-24 02:33:00,
2013-01-23 18:38:00,39.0,0.0,29.69,West,270,0.0,0.0,0,0.01,,,0.30,Weather View 32 v70,2013-01-24 02:38:00,
2013-01-23 18:43:00,39.0,0.0,29.70,WSW,248,0.0,0.0,0,0.01,,,0.30,Weather View 32 v70,2013-01-24 02:43:00,
2013-01-23 18:48:00,39.0,0.0,29.71,SW,225,0.0,0.0,0,0.01,,,0.30,Weather View 32 v70,2013-01-24 02:48:00,
2013-01-23 18:53:00,39.0,0.0,29.71,SW,225,0.0,0.0,0,0.02,,,0.31,Weather View 32 v70,2013-01-24 02:53:00,
2013-01-23 18:58:00,39.0,0.0,29.72,SW,225,0.0,0.0,0,0.02,,,0.31,Weather View 32 v70,2013-01-24 02:58:00,
2013-01-23 19:03:00,39.0,0.0,29.72,WSW,248,0.0,0.0,0,0.02,,,0.31,Weather View 32 v70,2013-01-24 03:03:00,
2013-01-23 19:08:00,39.0,0.0,29.72,SSW,202,0.0,0.0,0,0.02,,,0.31,Weather View 32 v70,2013-01-24 03:08:00,
2013-01-23 19:13:00,39.0,0.0,29.73,SW,225,0.0,0.0,0,0.02,,,0.31,Weather View 32 v70,2013-01-24 03:13:00,
2013-01-23 19:18:00,39.0,0.0,29.73,SW,225,0.0,0.0,0,0.01,,,0.31,Weather View 32 v70,2013-01-24 03:18:00,
2013-01-23 19:23:00,39.0,0.0,29.73,SSW,202,0.0,0.0,0,0.01,,,0.31,Weather View 32 v70,2013-01-24 03:23:00,
2013-01-23 19:28:00,39.0,0.0,29.74,WNW,292,0.0,0.0,0,0.01,,,0.31,Weather View 32 v70,2013-01-24 03:28:00,
2013-01-23 19:33:00,39.0,0.0,29.75,West,270,0.0,0.0,0,0.01,,,0.31,Weather View 32 v70,2013-01-24 03:33:00,
2013-01-23 19:38:00,39.0,0.0,29.75,WNW,292,0.0,0.0,0,0.01,,,0.31,Weather View 32 v70,2013-01-24 03:38:00,
2013-01-23 19:43:00,39.0,0.0,29.75,NW,315,0.0,0.0,0,0.01,,,0.31,Weather View 32 v70,2013-01-24 03:43:00,
2013-01-23 19:48:00,39.0,0.0,29.76,WNW,292,0.0,0.0,0,0.01,,,0.31,Weather View 32 v70,2013-01-24 03:48:00,
2013-01-23 19:53:00,39.0,0.0,29.76,NW,315,0.0,0.0,0,0.00,,,0.31,Weather View 32 v70,2013-01-24 03:53:00,
2013-01-23 19:58:00,39.0,0.0,29.76,NW,315,0.0,0.0,0,0.00,,,0.31,Weather View 32 v70,2013-01-24 03:58:00,
2013-01-23 20:03:00,38.0,0.0,29.77,SSW,202,0.0,0.0,0,0.00,,,0.31,Weather View 32 v70,2013-01-24 04:03:00,
2013-01-23 20:08:00,38.0,0.0,29.77,WNW,292,0.0,0.0,0,0.00,,,0.31,Weather View 32 v70,2013-01-24 04:08:00,
2013-01-23 20:13:00,38.0,0.0,29.77,NNW,338,0.0,0.0,0,0.00,,,0.31,Weather View 32 v70,2013-01-24 04:13:00,
2013-01-23 20:18:00,38.0,0.0,29.78,North,0,0.0,0.0,0,0.00,,,0.31,Weather View 32 v70,2013-01-24 04:18:00,
2013-01-23 20:23:00,38.0,0.0,29.78,WNW,292,0.0,0.0,0,0.00,,,0.31,Weather View 32 v70,2013-01-24 04:23:00,
2013-01-23 20:28:00,38.0,0.0,29.78,North,0,0.0,0.0,0,0.00,,,0.31,Weather View 32 v70,2013-01-24 04:28:00,
2013-01-23 20:33:00,38.0,0.0,29.79,NW,315,0.0,0.0,0,0.00,,,0.31,Weather View 32 v70,2013-01-24 04:33:00,
2013-01-23 20:38:00,38.0,0.0,29.79,NW,315,0.0,0.0,0,0.00,,,0.31,Weather View 32 v70,2013-01-24 04:38:00,
2013-01-23 20:43:00,38.0,0.0,29.79,NNW,338,0.0,0.0,0,0.00,,,0.31,Weather View 32 v70,2013-01-24 04:43:00,
2013-01-23 20:48:00,37.0,0.0,29.80,WNW,292,0.0,0.0,0,0.00,,,0.31,Weather View 32 v70,2013-01-24 04:48:00,
2013-01-23 20:53:00,37.0,0.0,29.80,NW,315,0.0,0.0,0,0.00,,,0.31,Weather View 32 v70,2013-01-24 04:53:00,
2013-01-23 20:58:00,37.0,0.0,29.80,NNW,338,0.0,0.0,0,0.00,,,0.31,Weather View 32 v70,2013-01-24 04:58:00,
2013-01-23 21:00:00,37.0,0.0,29.80,NNW,338,0.0,0.0,0,0.00,,,0.31,Weather View 32 v70,2013-01-24 05:00:00,
2013-01-23 21:02:00,37.0,0.0,29.80,NW,315,0.0,0.0,0,0.00,,,0.31,Weather View 32 v70,2013-01-24 05:02:00,
2013-01-23 21:03:00,37.0,0.0,29.80,NW,315,0.0,0.0,0,0.00,,,0.31,Weather View 32 v70,2013-01-24 05:03:00,
2013-01-23 21:08:00,37.0,0.0,29.80,NW,315,0.0,0.0,0,0.00,,,0.31,Weather View 32 v70,2013-01-24 05:08:00,
2013-01-23 21:13:00,37.0,0.0,29.81,WNW,292,0.0,0.0,0,0.00,,,0.31,Weather View 32 v70,2013-01-24 05:13:00,
2013-01-23 21:18:00,37.0,0.0,29.81,WNW,292,0.0,0.0,0,0.00,,,0.31,Weather View 32 v70,2013-01-24 05:18:00,
2013-01-23 21:23:00,37.0,0.0,29.81,WNW,292,0.0,0.0,0,0.00,,,0.31,Weather View 32 v70,2013-01-24 05:23:00,
2013-01-23 21:28:00,37.0,0.0,29.81,NW,315,0.0,0.0,0,0.00,,,0.31,Weather View 32 v70,2013-01-24 05:28:00,
2013-01-23 21:33:00,37.0,0.0,29.82,NNW,338,0.0,0.0,0,0.00,,,0.31,Weather View 32 v70,2013-01-24 05:33:00,
2013-01-23 21:38:00,37.0,0.0,29.82,NNW,338,0.0,0.0,0,0.00,,,0.31,Weather View 32 v70,2013-01-24 05:38:00,
2013-01-23 21:43:00,37.0,0.0,29.82,NNW,338,0.0,0.0,0,0.00,,,0.31,Weather View 32 v70,2013-01-24 05:43:00,
2013-01-23 21:48:00,37.0,0.0,29.82,NNW,338,0.0,0.0,0,0.00,,,0.31,Weather View 32 v70,2013-01-24 05:48:00,
2013-01-23 21:53:00,37.0,0.0,29.83,NW,315,0.0,0.0,0,0.00,,,0.31,Weather View 32 v70,2013-01-24 05:53:00,
2013-01-23 21:58:00,37.0,0.0,29.83,NNW,338,0.0,0.0,0,0.00,,,0.31,Weather View 32 v70,2013-01-24 05:58:00,
2013-01-23 22:03:00,37.0,0.0,29.84,NNW,338,0.0,0.0,0,0.00,,,0.31,Weather View 32 v70,2013-01-24 06:03:00,
2013-01-23 22:08:00,37.0,0.0,29.84,NW,315,0.0,0.0,0,0.00,,,0.31,Weather View 32 v70,2013-01-24 06:08:00,
2013-01-23 22:13:00,37.0,0.0,29.84,NW,315,0.0,0.0,0,0.00,,,0.31,Weather View 32 v70,2013-01-24 06:13:00,
2013-01-23 22:18:00,37.0,0.0,29.84,NW,315,0.0,0.0,0,0.00,,,0.31,Weather View 32 v70,2013-01-24 06:18:00,
2013-01-23 22:23:00,38.0,0.0,29.85,NW,315,0.0,0.0,0,0.00,,,0.31,Weather View 32 v70,2013-01-24 06:23:00,
2013-01-23 22:28:00,38.0,0.0,29.85,NW,315,0.0,0.0,0,0.00,,,0.31,Weather View 32 v70,2013-01-24 06:28:00,
2013-01-23 22:33:00,38.0,0.0,29.85,NW,315,0.0,0.0,0,0.00,,,0.31,Weather View 32 v70,2013-01-24 06:33:00,
2013-01-23 22:38:00,38.0,0.0,29.86,NW,315,0.0,0.0,0,0.00,,,0.31,Weather View 32 v70,2013-01-24 06:38:00,
2013-01-23 22:43:00,38.0,0.0,29.86,NW,315,0.0,0.0,0,0.00,,,0.31,Weather View 32 v70,2013-01-24 06:43:00,
2013-01-23 22:48:00,38.0,0.0,29.86,NW,315,0.0,0.0,0,0.00,,,0.31,Weather View 32 v70,2013-01-24 06:48:00,
2013-01-23 22:53:00,38.0,0.0,29.86,NW,315,0.0,0.0,0,0.00,,,0.31,Weather View 32 v70,2013-01-24 06:53:00,
2013-01-23 22:58:00,38.0,0.0,29.87,WNW,292,0.0,0.0,0,0.00,,,0.31,Weather View 32 v70,2013-01-24 06:58:00,
2013-01-23 23:03:00,38.0,0.0,29.87,SW,225,0.0,0.0,0,0.00,,,0.31,Weather View 32 v70,2013-01-24 07:03:00,
2013-01-23 23:08:00,38.0,0.0,29.87,West,270,0.0,0.0,0,0.00,,,0.31,Weather View 32 v70,2013-01-24 07:08:00,
2013-01-23 23:13:00,38.0,0.0,29.88,West,270,0.0,0.0,0,0.00,,,0.31,Weather View 32 v70,2013-01-24 07:13:00,
2013-01-23 23:18:00,38.0,0.0,29.88,WNW,292,0.0,0.0,0,0.00,,,0.31,Weather View 32 v70,2013-01-24 07:18:00,
2013-01-23 23:23:00,39.0,0.0,29.88,WNW,292,0.0,0.0,0,0.00,,,0.31,Weather View 32 v70,2013-01-24 07:23:00,
2013-01-23 23:28:00,39.0,0.0,29.88,NW,315,0.0,0.0,0,0.00,,,0.31,Weather View 32 v70,2013-01-24 07:28:00,
2013-01-23 23:33:00,39.0,0.0,29.88,NW,315,0.0,0.0,0,0.00,,,0.31,Weather View 32 v70,2013-01-24 07:33:00,
2013-01-23 23:38:00,39.0,0.0,29.88,NW,315,0.0,0.0,0,0.00,,,0.31,Weather View 32 v70,2013-01-24 07:38:00,
2013-01-23 23:43:00,39.0,0.0,29.89,WNW,292,0.0,0.0,0,0.00,,,0.31,Weather View 32 v70,2013-01-24 07:43:00,
2013-01-23 23:48:00,39.0,0.0,29.89,WNW,292,0.0,0.0,0,0.00,,,0.31,Weather View 32 v70,2013-01-24 07:48:00,
2013-01-23 23:53:00,39.0,0.0,29.89,WSW,248,0.0,0.0,0,0.00,,,0.31,Weather View 32 v70,2013-01-24 07:53:00,
2013-01-23 23:58:00,39.0,0.0,29.89,NW,315,0.0,0.0,0,0.00,,,0.31,Weather View 32 v70,2013-01-24 07:58:00,